Location: Squirrel Cove
(50.1074°N, 124.9139°W)
Time: 19:13:58
(UTC-08:00)

Envisat - Pass Details

Date: 29 November 2022
Orbit: 763 x 765 km, 98.2° (Epoch: 05 February)

Event Time Altitude Azimuth Distance (km) Brightness Sun altitude
Rises 05:28:44 0° 9° (N) 3,247 6.3 -22.5°
Reaches altitude 10° 05:31:09 10° 3° (N) 2,316 5.4 -22.2°
Enters shadow 05:34:52 37° 324° (NW) 1,179 3.6 -21.6°
